owner,sensor,date,latitude,longitude,vertical_datum,wind_speed,wind_to_direction,wind_speed_of_gust,qcFlag 
WAVCIS,ioos:station:WAVCIS:CSI03:3,2014-07-01T16:00:00Z,29.4412,-92.0613,10.0,0.0,0.0,1.5,'11111222,11111222,11111222' 
WAVCIS,ioos:station:WAVCIS:CSI03:3,2014-07-01T17:00:00Z,29.4412,-92.0613,10.0,1.5,180.0,2.1,'11111222,11111222,11111222' 
WAVCIS,ioos:station:WAVCIS:CSI03:3,2014-07-01T18:00:00Z,29.4412,-92.0613,10.0,1.5,190.0,2.6,'11111222,11111222,11111222' 
WAVCIS,ioos:station:WAVCIS:CSI03:3,2014-07-01T19:00:00Z,29.4412,-92.0613,10.0,2.1,190.0,3.1,'11111222,11111222,11111222' 
WAVCIS,ioos:station:WAVCIS:CSI03:3,2014-07-02T11:00:00Z,29.4412,-92.0613,10.0,4.1,290.0,5.7,'11111222,11111222,11111222' 
WAVCIS,ioos:station:WAVCIS:CSI03:3,2014-07-02T12:00:00Z,29.4412,-92.0613,10.0,5.1,350.0,6.7,'11111222,11111222,11111222' 
WAVCIS,ioos:station:WAVCIS:CSI03:3,2014-07-02T13:00:00Z,29.4412,-92.0613,10.0,3.1,10.0,4.1,'11111222,11111222,11111222' 
WAVCIS,ioos:station:WAVCIS:CSI03:3,2014-07-02T14:00:00Z,29.4412,-92.0613,10.0,3.1,10.0,4.1,'11111222,11111222,11111222' 
WAVCIS,ioos:station:WAVCIS:CSI03:3,2014-07-02T15:00:00Z,29.4412,-92.0613,10.0,2.6,20.0,3.6,'11111222,11111222,11111222' 
WAVCIS,ioos:station:WAVCIS:CSI03:3,2014-07-02T16:00:00Z,29.4412,-92.0613,10.0,3.1,20.0,4.1,'11111222,11111222,11111222' 
WAVCIS,ioos:station:WAVCIS:CSI03:3,2014-07-02T17:00:00Z,29.4412,-92.0613,10.0,2.1,30.0,2.6,'11111222,11111222,11111222' 
WAVCIS,ioos:station:WAVCIS:CSI03:3,2014-07-02T18:00:00Z,29.4412,-92.0613,10.0,0.0,0.0,1.0,'11111222,11111222,11111222' 
WAVCIS,ioos:station:WAVCIS:CSI03:3,2014-07-02T19:00:00Z,29.4412,-92.0613,10.0,0.0,0.0,1.0,'11111222,11111222,11111222' 
WAVCIS,ioos:station:WAVCIS:CSI03:3,2014-07-02T20:00:00Z,29.4412,-92.0613,10.0,3.6,270.0,4.6,'11111222,11111222,11111222' 
WAVCIS,ioos:station:WAVCIS:CSI03:3,2014-07-02T21:00:00Z,29.4412,-92.0613,10.0,4.1,280.0,5.7,'11111222,11111222,11111222' 
WAVCIS,ioos:station:WAVCIS:CSI03:3,2014-07-02T22:00:00Z,29.4412,-92.0613,10.0,3.6,280.0,4.6,'11111222,11111222,11111222' 
WAVCIS,ioos:station:WAVCIS:CSI03:3,2014-07-02T23:00:00Z,29.4412,-92.0613,10.0,4.1,280.0,6.2,'11111222,11111222,11111222' 
WAVCIS,ioos:station:WAVCIS:CSI03:3,2014-07-03T00:00:00Z,29.4412,-92.0613,10.0,3.6,250.0,5.1,'11111222,11111222,11111222' 
WAVCIS,ioos:station:WAVCIS:CSI03:3,2014-07-03T01:00:00Z,29.4412,-92.0613,10.0,5.1,290.0,6.2,'11111222,11111222,11111222' 
WAVCIS,ioos:station:WAVCIS:CSI03:3,2014-07-03T02:00:00Z,29.4412,-92.0613,10.0,5.7,280.0,6.7,'11111222,11111222,11111222' 
WAVCIS,ioos:station:WAVCIS:CSI03:3,2014-07-03T03:00:00Z,29.4412,-92.0613,10.0,4.1,310.0,7.2,'11111222,11111222,11111222' 
WAVCIS,ioos:station:WAVCIS:CSI03:3,2014-07-03T04:00:00Z,29.4412,-92.0613,10.0,7.7,330.0,8.8,'11111222,11111222,11111222' 
WAVCIS,ioos:station:WAVCIS:CSI03:3,2014-07-03T05:00:00Z,29.4412,-92.0613,10.0,4.6,20.0,6.7,'11111222,11111222,11111222' 
WAVCIS,ioos:station:WAVCIS:CSI03:3,2014-07-03T06:00:00Z,29.4412,-92.0613,10.0,3.6,80.0,4.1,'11111222,11111222,11111222' 
WAVCIS,ioos:station:WAVCIS:CSI03:3,2014-07-03T07:00:00Z,29.4412,-92.0613,10.0,1.5,50.0,2.1,'11111222,11111222,11111222' 
WAVCIS,ioos:station:WAVCIS:CSI03:3,2014-07-03T08:00:00Z,29.4412,-92.0613,10.0,3.6,40.0,4.6,'11111222,11111222,11111222' 
WAVCIS,ioos:station:WAVCIS:CSI03:3,2014-07-03T09:00:00Z,29.4412,-92.0613,10.0,1.5,40.0,2.1,'11111222,11111222,11111222' 
WAVCIS,ioos:station:WAVCIS:CSI03:3,2014-07-03T10:00:00Z,29.4412,-92.0613,10.0,2.1,20.0,3.1,'11111222,11111222,11111222' 
WAVCIS,ioos:station:WAVCIS:CSI03:3,2014-07-03T11:00:00Z,29.4412,-92.0613,10.0,2.1,340.0,2.6,'11111222,11111222,11111222' 
WAVCIS,ioos:station:WAVCIS:CSI03:3,2014-07-03T12:00:00Z,29.4412,-92.0613,10.0,3.1,10.0,4.1,'11111222,11111222,11111222' 
WAVCIS,ioos:station:WAVCIS:CSI03:3,2014-07-03T13:00:00Z,29.4412,-92.0613,10.0,4.6,10.0,6.2,'11111222,11111222,11111222' 
WAVCIS,ioos:station:WAVCIS:CSI03:3,2014-07-03T14:00:00Z,29.4412,-92.0613,10.0,4.1,30.0,6.2,'11111222,11111222,11111222' 
WAVCIS,ioos:station:WAVCIS:CSI03:3,2014-07-03T15:00:00Z,29.4412,-92.0613,10.0,4.6,20.0,5.7,'11111222,11111222,11111222' 
WAVCIS,ioos:station:WAVCIS:CSI03:3,2014-07-03T16:00:00Z,29.4412,-92.0613,10.0,3.1,10.0,4.1,'11111222,11111222,11111222' 
WAVCIS,ioos:station:WAVCIS:CSI03:3,2014-07-03T17:00:00Z,29.4412,-92.0613,10.0,3.6,20.0,4.6,'11111222,11111222,11111222' 
WAVCIS,ioos:station:WAVCIS:CSI03:3,2014-07-03T18:00:00Z,29.4412,-92.0613,10.0,4.1,10.0,4.6,'11111222,11111222,11111222' 
WAVCIS,ioos:station:WAVCIS:CSI03:3,2014-07-03T19:00:00Z,29.4412,-92.0613,10.0,3.1,20.0,4.1,'11111222,11111222,11111222' 
WAVCIS,ioos:station:WAVCIS:CSI03:3,2014-07-03T20:00:00Z,29.4412,-92.0613,10.0,3.1,30.0,3.6,'11111222,11111222,11111222' 
WAVCIS,ioos:station:WAVCIS:CSI03:3,2014-07-03T21:00:00Z,29.4412,-92.0613,10.0,3.6,10.0,5.1,'11111222,11111222,11111222' 
WAVCIS,ioos:station:WAVCIS:CSI03:3,2014-07-03T22:00:00Z,29.4412,-92.0613,10.0,3.1,80.0,5.1,'11111222,11111222,11111222' 
WAVCIS,ioos:station:WAVCIS:CSI03:3,2014-07-03T23:00:00Z,29.4412,-92.0613,10.0,4.1,110.0,6.2,'11111222,11111222,11111222' 
WAVCIS,ioos:station:WAVCIS:CSI03:3,2014-07-04T00:00:00Z,29.4412,-92.0613,10.0,3.6,150.0,4.6,'11111222,11111222,11111222' 
WAVCIS,ioos:station:WAVCIS:CSI03:3,2014-07-04T02:00:00Z,29.4412,-92.0613,10.0,1.5,190.0,2.6,'11111222,11111222,11111222' 
WAVCIS,ioos:station:WAVCIS:CSI03:3,2014-07-04T03:00:00Z,29.4412,-92.0613,10.0,4.6,310.0,6.7,'11111222,11111222,11111222' 
WAVCIS,ioos:station:WAVCIS:CSI03:3,2014-07-04T06:00:00Z,29.4412,-92.0613,10.0,4.6,360.0,5.7,'11111222,11144222,11111222' 
WAVCIS,ioos:station:WAVCIS:CSI03:3,2014-07-04T08:00:00Z,29.4412,-92.0613,10.0,5.1,10.0,6.7,'11111222,11111222,11111222' 
WAVCIS,ioos:station:WAVCIS:CSI03:3,2014-07-04T09:00:00Z,29.4412,-92.0613,10.0,5.1,40.0,6.2,'11111222,11111222,11111222' 
WAVCIS,ioos:station:WAVCIS:CSI03:3,2014-07-04T10:00:00Z,29.4412,-92.0613,10.0,5.1,40.0,6.7,'11111222,11111222,11111222' 
WAVCIS,ioos:station:WAVCIS:CSI03:3,2014-07-04T12:00:00Z,29.4412,-92.0613,10.0,8.2,70.0,9.8,'11111222,11111222,11111222' 
WAVCIS,ioos:station:WAVCIS:CSI03:3,2014-07-04T13:00:00Z,29.4412,-92.0613,10.0,7.7,70.0,9.3,'11111222,11111222,11111222' 
WAVCIS,ioos:station:WAVCIS:CSI03:3,2014-07-04T14:00:00Z,29.4412,-92.0613,10.0,7.7,70.0,8.2,'11111222,11111222,11111222' 
WAVCIS,ioos:station:WAVCIS:CSI03:3,2014-07-04T16:00:00Z,29.4412,-92.0613,10.0,5.7,70.0,6.7,'11111222,11111222,11111222' 
WAVCIS,ioos:station:WAVCIS:CSI03:3,2014-07-04T18:00:00Z,29.4412,-92.0613,10.0,4.1,70.0,5.7,'11111222,11111222,11111222' 
WAVCIS,ioos:station:WAVCIS:CSI03:3,2014-07-05T03:00:00Z,29.4412,-92.0613,10.0,6.2,50.0,7.2,'11111222,11111222,11111222' 
WAVCIS,ioos:station:WAVCIS:CSI03:3,2014-07-05T05:00:00Z,29.4412,-92.0613,10.0,7.7,50.0,8.8,'11111222,11111222,11111222' 
WAVCIS,ioos:station:WAVCIS:CSI03:3,2014-07-05T06:00:00Z,29.4412,-92.0613,10.0,7.7,50.0,9.3,'11111222,11111222,11111222' 
WAVCIS,ioos:station:WAVCIS:CSI03:3,2014-07-05T07:00:00Z,29.4412,-92.0613,10.0,6.7,60.0,8.2,'11111222,11111222,11111222' 
WAVCIS,ioos:station:WAVCIS:CSI03:3,2014-07-05T08:00:00Z,29.4412,-92.0613,10.0,6.2,60.0,7.7,'11111222,11111222,11111222' 
WAVCIS,ioos:station:WAVCIS:CSI03:3,2014-07-05T09:00:00Z,29.4412,-92.0613,10.0,6.7,60.0,7.7,'11111222,11111222,11111222' 
WAVCIS,ioos:station:WAVCIS:CSI03:3,2014-07-05T10:00:00Z,29.4412,-92.0613,10.0,6.2,60.0,7.2,'11111222,11111222,11111222' 
WAVCIS,ioos:station:WAVCIS:CSI03:3,2014-07-05T11:00:00Z,29.4412,-92.0613,10.0,6.2,60.0,7.7,'11111222,11111222,11111222' 
WAVCIS,ioos:station:WAVCIS:CSI03:3,2014-07-05T12:00:00Z,29.4412,-92.0613,10.0,6.7,70.0,7.7,'11111222,11111222,11111222' 
WAVCIS,ioos:station:WAVCIS:CSI03:3,2014-07-05T13:00:00Z,29.4412,-92.0613,10.0,6.2,70.0,7.7,'11111222,11111222,11111222' 
WAVCIS,ioos:station:WAVCIS:CSI03:3,2014-07-05T14:00:00Z,29.4412,-92.0613,10.0,5.7,80.0,6.7,'11111222,11111222,11111222' 
WAVCIS,ioos:station:WAVCIS:CSI03:3,2014-07-05T15:00:00Z,29.4412,-92.0613,10.0,5.1,90.0,6.2,'11111222,11111222,11111222' 
WAVCIS,ioos:station:WAVCIS:CSI03:3,2014-07-05T16:00:00Z,29.4412,-92.0613,10.0,4.6,100.0,5.7,'11111222,11111222,11111222' 
WAVCIS,ioos:station:WAVCIS:CSI03:3,2014-07-05T17:00:00Z,29.4412,-92.0613,10.0,3.6,110.0,4.6,'11111222,11111222,11111222' 
WAVCIS,ioos:station:WAVCIS:CSI03:3,2014-07-06T02:00:00Z,29.4412,-92.0613,10.0,0.5,220.0,3.1,'11111222,11111222,11111222' 
WAVCIS,ioos:station:WAVCIS:CSI03:3,2014-07-06T03:00:00Z,29.4412,-92.0613,10.0,0.0,0.0,2.1,'11111222,11111222,11111222' 
WAVCIS,ioos:station:WAVCIS:CSI03:3,2014-07-06T04:00:00Z,29.4412,-92.0613,10.0,1.0,350.0,1.5,'11111222,11111222,11111222' 
WAVCIS,ioos:station:WAVCIS:CSI03:3,2014-07-06T06:00:00Z,29.4412,-92.0613,10.0,1.5,50.0,3.1,'11111222,11111222,11111222' 
WAVCIS,ioos:station:WAVCIS:CSI03:3,2014-07-06T07:00:00Z,29.4412,-92.0613,10.0,1.5,30.0,2.6,'11111222,11111222,11111222' 
WAVCIS,ioos:station:WAVCIS:CSI03:3,2014-07-06T08:00:00Z,29.4412,-92.0613,10.0,2.1,60.0,3.1,'11111222,11111222,11111222' 
WAVCIS,ioos:station:WAVCIS:CSI03:3,2014-07-06T09:00:00Z,29.4412,-92.0613,10.0,1.5,100.0,2.6,'11111222,11111222,11111222' 
WAVCIS,ioos:station:WAVCIS:CSI03:3,2014-07-06T10:00:00Z,29.4412,-92.0613,10.0,1.5,40.0,2.1,'11111222,11111222,11111222' 
WAVCIS,ioos:station:WAVCIS:CSI03:3,2014-07-06T11:00:00Z,29.4412,-92.0613,10.0,2.6,40.0,3.6,'11111222,11111222,11111222' 
WAVCIS,ioos:station:WAVCIS:CSI03:3,2014-07-06T12:00:00Z,29.4412,-92.0613,10.0,2.1,40.0,3.1,'11111222,11111222,11111222' 
WAVCIS,ioos:station:WAVCIS:CSI03:3,2014-07-06T14:00:00Z,29.4412,-92.0613,10.0,1.0,80.0,2.1,'11111222,11111222,11111222' 
WAVCIS,ioos:station:WAVCIS:CSI03:3,2014-07-06T16:00:00Z,29.4412,-92.0613,10.0,1.0,80.0,1.5,'11111222,11111222,11111222' 
WAVCIS,ioos:station:WAVCIS:CSI03:3,2014-07-07T01:00:00Z,29.4412,-92.0613,10.0,1.0,200.0,3.1,'11111222,11111222,11111222' 
WAVCIS,ioos:station:WAVCIS:CSI03:3,2014-07-07T05:00:00Z,29.4412,-92.0613,10.0,1.5,190.0,2.6,'11111222,11111222,11111222' 
WAVCIS,ioos:station:WAVCIS:CSI03:3,2014-07-07T09:00:00Z,29.4412,-92.0613,10.0,1.0,210.0,3.1,'11111222,11111222,11111222' 
WAVCIS,ioos:station:WAVCIS:CSI03:3,2014-07-07T10:00:00Z,29.4412,-92.0613,10.0,2.1,240.0,4.1,'11111222,11111222,11111222' 
WAVCIS,ioos:station:WAVCIS:CSI03:3,2014-07-07T11:00:00Z,29.4412,-92.0613,10.0,0.5,220.0,3.6,'11111222,11111222,11111222' 
WAVCIS,ioos:station:WAVCIS:CSI03:3,2014-07-07T12:00:00Z,29.4412,-92.0613,10.0,2.1,260.0,4.1,'11111222,11111222,11111222' 
WAVCIS,ioos:station:WAVCIS:CSI03:3,2014-07-07T13:00:00Z,29.4412,-92.0613,10.0,2.1,270.0,3.1,'11111222,11111222,11111222' 
WAVCIS,ioos:station:WAVCIS:CSI03:3,2014-07-07T14:00:00Z,29.4412,-92.0613,10.0,2.6,280.0,3.6,'11111222,11111222,11111222' 
WAVCIS,ioos:station:WAVCIS:CSI03:3,2014-07-07T17:00:00Z,29.4412,-92.0613,10.0,1.5,180.0,2.6,'11111222,11111222,11111222' 
WAVCIS,ioos:station:WAVCIS:CSI03:3,2014-07-08T03:00:00Z,29.4412,-92.0613,10.0,3.6,200.0,5.7,'11111222,11111222,11111222' 
WAVCIS,ioos:station:WAVCIS:CSI03:3,2014-07-08T04:00:00Z,29.4412,-92.0613,10.0,3.6,200.0,5.7,'11111222,11111222,11111222' 
WAVCIS,ioos:station:WAVCIS:CSI03:3,2014-07-08T05:00:00Z,29.4412,-92.0613,10.0,3.6,200.0,5.1,'11111222,11111222,11111222' 
WAVCIS,ioos:station:WAVCIS:CSI03:3,2014-07-08T06:00:00Z,29.4412,-92.0613,10.0,2.6,200.0,5.1,'11111222,11111222,11111222' 
WAVCIS,ioos:station:WAVCIS:CSI03:3,2014-07-08T07:00:00Z,29.4412,-92.0613,10.0,3.6,190.0,5.7,'11111222,11111222,11111222' 
WAVCIS,ioos:station:WAVCIS:CSI03:3,2014-07-08T08:00:00Z,29.4412,-92.0613,10.0,3.1,200.0,6.2,'11111222,11111222,11111222' 
WAVCIS,ioos:station:WAVCIS:CSI03:3,2014-07-08T09:00:00Z,29.4412,-92.0613,10.0,2.1,220.0,4.6,'11111222,11111222,11111222' 
WAVCIS,ioos:station:WAVCIS:CSI03:3,2014-07-08T10:00:00Z,29.4412,-92.0613,10.0,1.0,210.0,3.6,'11111222,11111222,11111222' 
WAVCIS,ioos:station:WAVCIS:CSI03:3,2014-07-08T11:00:00Z,29.4412,-92.0613,10.0,3.6,240.0,5.7,'11111222,11111222,11111222' 
WAVCIS,ioos:station:WAVCIS:CSI03:3,2014-07-08T12:00:00Z,29.4412,-92.0613,10.0,5.7,290.0,7.7,'11111222,11111222,11111222' 
WAVCIS,ioos:station:WAVCIS:CSI03:3,2014-07-08T14:00:00Z,29.4412,-92.0613,10.0,6.7,270.0,10.3,'11111222,11111222,11111222' 
WAVCIS,ioos:station:WAVCIS:CSI03:3,2014-07-08T15:00:00Z,29.4412,-92.0613,10.0,2.6,150.0,3.6,'11111222,11111222,11111222' 
WAVCIS,ioos:station:WAVCIS:CSI03:3,2014-07-08T16:00:00Z,29.4412,-92.0613,10.0,2.1,200.0,4.6,'11111222,11111222,11111222' 
WAVCIS,ioos:station:WAVCIS:CSI03:3,2014-07-08T17:00:00Z,29.4412,-92.0613,10.0,1.0,220.0,3.6,'11111222,11111222,11111222' 
WAVCIS,ioos:station:WAVCIS:CSI03:3,2014-07-08T18:00:00Z,29.4412,-92.0613,10.0,1.0,240.0,2.6,'11111222,11111222,11111222' 
WAVCIS,ioos:station:WAVCIS:CSI03:3,2014-07-08T19:00:00Z,29.4412,-92.0613,10.0,0.5,190.0,2.1,'11111222,11111222,11111222' 
WAVCIS,ioos:station:WAVCIS:CSI03:3,2014-07-08T20:00:00Z,29.4412,-92.0613,10.0,1.5,210.0,4.1,'11111222,11111222,11111222' 
WAVCIS,ioos:station:WAVCIS:CSI03:3,2014-07-08T21:00:00Z,29.4412,-92.0613,10.0,2.6,180.0,5.7,'11111222,11111222,11111222' 
WAVCIS,ioos:station:WAVCIS:CSI03:3,2014-07-08T22:00:00Z,29.4412,-92.0613,10.0,4.6,160.0,5.7,'11111222,11111222,11111222' 
WAVCIS,ioos:station:WAVCIS:CSI03:3,2014-07-08T23:00:00Z,29.4412,-92.0613,10.0,4.6,180.0,6.2,'11111222,11111222,11111222' 
WAVCIS,ioos:station:WAVCIS:CSI03:3,2014-07-09T00:00:00Z,29.4412,-92.0613,10.0,0.5,240.0,2.1,'11111222,11111222,11111222' 
WAVCIS,ioos:station:WAVCIS:CSI03:3,2014-07-09T01:00:00Z,29.4412,-92.0613,10.0,4.6,80.0,6.2,'11111222,11111222,11111222' 
WAVCIS,ioos:station:WAVCIS:CSI03:3,2014-07-09T02:00:00Z,29.4412,-92.0613,10.0,3.6,180.0,5.1,'11111222,11111222,11111222' 
WAVCIS,ioos:station:WAVCIS:CSI03:3,2014-07-09T03:00:00Z,29.4412,-92.0613,10.0,2.6,200.0,4.1,'11111222,11111222,11111222' 
WAVCIS,ioos:station:WAVCIS:CSI03:3,2014-07-09T04:00:00Z,29.4412,-92.0613,10.0,3.1,230.0,5.1,'11111222,11111222,11111222' 
WAVCIS,ioos:station:WAVCIS:CSI03:3,2014-07-09T05:00:00Z,29.4412,-92.0613,10.0,2.6,230.0,4.1,'11111222,11111222,11111222' 
WAVCIS,ioos:station:WAVCIS:CSI03:3,2014-07-09T06:00:00Z,29.4412,-92.0613,10.0,2.6,220.0,4.6,'11111222,11111222,11111222' 
WAVCIS,ioos:station:WAVCIS:CSI03:3,2014-07-09T07:00:00Z,29.4412,-92.0613,10.0,2.6,200.0,4.6,'11111222,11111222,11111222' 
WAVCIS,ioos:station:WAVCIS:CSI03:3,2014-07-09T08:00:00Z,29.4412,-92.0613,10.0,3.1,250.0,5.1,'11111222,11111222,11111222' 
WAVCIS,ioos:station:WAVCIS:CSI03:3,2014-07-09T09:00:00Z,29.4412,-92.0613,10.0,2.1,230.0,4.1,'11111222,11111222,11111222' 
WAVCIS,ioos:station:WAVCIS:CSI03:3,2014-07-09T10:00:00Z,29.4412,-92.0613,10.0,1.5,230.0,4.1,'11111222,11111222,11111222' 
WAVCIS,ioos:station:WAVCIS:CSI03:3,2014-07-09T11:00:00Z,29.4412,-92.0613,10.0,1.5,240.0,3.1,'11111222,11111222,11111222' 
WAVCIS,ioos:station:WAVCIS:CSI03:3,2014-07-09T12:00:00Z,29.4412,-92.0613,10.0,1.0,240.0,3.1,'11111222,11111222,11111222' 
WAVCIS,ioos:station:WAVCIS:CSI03:3,2014-07-09T13:00:00Z,29.4412,-92.0613,10.0,2.1,250.0,4.1,'11111222,11111222,11111222' 
WAVCIS,ioos:station:WAVCIS:CSI03:3,2014-07-09T14:00:00Z,29.4412,-92.0613,10.0,2.1,250.0,4.6,'11111222,11111222,11111222' 
WAVCIS,ioos:station:WAVCIS:CSI03:3,2014-07-09T15:00:00Z,29.4412,-92.0613,10.0,3.6,270.0,5.7,'11111222,11111222,11111222' 
WAVCIS,ioos:station:WAVCIS:CSI03:3,2014-07-09T16:00:00Z,29.4412,-92.0613,10.0,2.1,290.0,3.6,'11111222,11111222,11111222' 
WAVCIS,ioos:station:WAVCIS:CSI03:3,2014-07-09T17:00:00Z,29.4412,-92.0613,10.0,2.1,280.0,3.1,'11111222,11111222,11111222' 
WAVCIS,ioos:station:WAVCIS:CSI03:3,2014-07-09T18:00:00Z,29.4412,-92.0613,10.0,2.1,260.0,4.1,'11111222,11111222,11111222' 
WAVCIS,ioos:station:WAVCIS:CSI03:3,2014-07-09T19:00:00Z,29.4412,-92.0613,10.0,2.1,240.0,4.1,'11111222,11111222,11111222' 
WAVCIS,ioos:station:WAVCIS:CSI03:3,2014-07-09T20:00:00Z,29.4412,-92.0613,10.0,3.6,240.0,5.7,'11111222,11111222,11111222' 
WAVCIS,ioos:station:WAVCIS:CSI03:3,2014-07-09T21:00:00Z,29.4412,-92.0613,10.0,2.1,220.0,3.6,'11111222,11111222,11111222' 
WAVCIS,ioos:station:WAVCIS:CSI03:3,2014-07-09T22:00:00Z,29.4412,-92.0613,10.0,3.1,250.0,5.1,'11111222,11111222,11111222' 
WAVCIS,ioos:station:WAVCIS:CSI03:3,2014-07-09T23:00:00Z,29.4412,-92.0613,10.0,1.0,250.0,3.6,'11111222,11111222,11111222' 
WAVCIS,ioos:station:WAVCIS:CSI03:3,2014-07-10T00:00:00Z,29.4412,-92.0613,10.0,4.6,90.0,5.7,'11111222,11111222,11111222' 
WAVCIS,ioos:station:WAVCIS:CSI03:3,2014-07-10T01:00:00Z,29.4412,-92.0613,10.0,2.6,150.0,4.6,'11111222,11111222,11111222' 
WAVCIS,ioos:station:WAVCIS:CSI03:3,2014-07-10T02:00:00Z,29.4412,-92.0613,10.0,3.1,190.0,4.6,'11111222,11111222,11111222' 
WAVCIS,ioos:station:WAVCIS:CSI03:3,2014-07-10T03:00:00Z,29.4412,-92.0613,10.0,2.6,200.0,4.6,'11111222,11111222,11111222' 
WAVCIS,ioos:station:WAVCIS:CSI03:3,2014-07-10T04:00:00Z,29.4412,-92.0613,10.0,0.5,210.0,4.1,'11111222,11111222,11111222' 
WAVCIS,ioos:station:WAVCIS:CSI03:3,2014-07-10T05:00:00Z,29.4412,-92.0613,10.0,1.0,210.0,4.1,'11111222,11111222,11111222' 
WAVCIS,ioos:station:WAVCIS:CSI03:3,2014-07-10T06:00:00Z,29.4412,-92.0613,10.0,2.1,240.0,5.1,'11111222,11111222,11111222' 
WAVCIS,ioos:station:WAVCIS:CSI03:3,2014-07-10T07:00:00Z,29.4412,-92.0613,10.0,2.1,230.0,3.6,'11111222,11111222,11111222' 
WAVCIS,ioos:station:WAVCIS:CSI03:3,2014-07-10T08:00:00Z,29.4412,-92.0613,10.0,2.6,240.0,4.6,'11111222,11111222,11111222' 
WAVCIS,ioos:station:WAVCIS:CSI03:3,2014-07-10T09:00:00Z,29.4412,-92.0613,10.0,2.1,240.0,4.6,'11111222,11111222,11111222' 
WAVCIS,ioos:station:WAVCIS:CSI03:3,2014-07-10T10:00:00Z,29.4412,-92.0613,10.0,1.0,230.0,4.1,'11111222,11111222,11111222' 
WAVCIS,ioos:station:WAVCIS:CSI03:3,2014-07-10T11:00:00Z,29.4412,-92.0613,10.0,1.0,230.0,4.1,'11111222,11111222,11111222' 
WAVCIS,ioos:station:WAVCIS:CSI03:3,2014-07-10T12:00:00Z,29.4412,-92.0613,10.0,1.0,190.0,2.1,'11111222,11111222,11111222' 
WAVCIS,ioos:station:WAVCIS:CSI03:3,2014-07-10T13:00:00Z,29.4412,-92.0613,10.0,1.0,200.0,2.1,'11111222,11111222,11111222' 
WAVCIS,ioos:station:WAVCIS:CSI03:3,2014-07-10T14:00:00Z,29.4412,-92.0613,10.0,1.0,190.0,2.6,'11111222,11111222,11111222' 
WAVCIS,ioos:station:WAVCIS:CSI03:3,2014-07-10T15:00:00Z,29.4412,-92.0613,10.0,1.5,190.0,2.6,'11111222,11111222,11111222' 
WAVCIS,ioos:station:WAVCIS:CSI03:3,2014-07-10T16:00:00Z,29.4412,-92.0613,10.0,2.1,240.0,6.7,'11111222,11111222,11111222' 
WAVCIS,ioos:station:WAVCIS:CSI03:3,2014-07-10T17:00:00Z,29.4412,-92.0613,10.0,1.0,280.0,2.1,'11111222,11111222,11111222' 
WAVCIS,ioos:station:WAVCIS:CSI03:3,2014-07-10T18:00:00Z,29.4412,-92.0613,10.0,3.1,180.0,4.1,'11111222,11111222,11111222' 
WAVCIS,ioos:station:WAVCIS:CSI03:3,2014-07-10T19:00:00Z,29.4412,-92.0613,10.0,1.0,310.0,2.1,'11111222,11111222,11111222' 
WAVCIS,ioos:station:WAVCIS:CSI03:3,2014-07-10T20:00:00Z,29.4412,-92.0613,10.0,1.5,30.0,3.1,'11111222,11111222,11111222' 
WAVCIS,ioos:station:WAVCIS:CSI03:3,2014-07-10T21:00:00Z,29.4412,-92.0613,10.0,1.0,200.0,2.1,'11111222,11111222,11111222' 
WAVCIS,ioos:station:WAVCIS:CSI03:3,2014-07-10T22:00:00Z,29.4412,-92.0613,10.0,1.0,210.0,3.6,'11111222,11111222,11111222' 
WAVCIS,ioos:station:WAVCIS:CSI03:3,2014-07-10T23:00:00Z,29.4412,-92.0613,10.0,1.0,200.0,3.1,'11111222,11111222,11111222' 
WAVCIS,ioos:station:WAVCIS:CSI03:3,2014-07-11T00:00:00Z,29.4412,-92.0613,10.0,1.0,200.0,3.6,'11111222,11111222,11111222' 
WAVCIS,ioos:station:WAVCIS:CSI03:3,2014-07-11T01:00:00Z,29.4412,-92.0613,10.0,2.1,240.0,4.1,'11111222,11111222,11111222' 
WAVCIS,ioos:station:WAVCIS:CSI03:3,2014-07-11T02:00:00Z,29.4412,-92.0613,10.0,0.5,220.0,2.6,'11111222,11111222,11111222' 
WAVCIS,ioos:station:WAVCIS:CSI03:3,2014-07-11T03:00:00Z,29.4412,-92.0613,10.0,2.6,250.0,4.1,'11111222,11111222,11111222' 
WAVCIS,ioos:station:WAVCIS:CSI03:3,2014-07-11T04:00:00Z,29.4412,-92.0613,10.0,2.1,280.0,3.1,'11111222,11111222,11111222' 
WAVCIS,ioos:station:WAVCIS:CSI03:3,2014-07-11T05:00:00Z,29.4412,-92.0613,10.0,1.0,290.0,2.1,'11111222,11111222,11111222' 
WAVCIS,ioos:station:WAVCIS:CSI03:3,2014-07-11T06:00:00Z,29.4412,-92.0613,10.0,1.0,210.0,3.1,'11111222,11111222,11111222' 
WAVCIS,ioos:station:WAVCIS:CSI03:3,2014-07-11T07:00:00Z,29.4412,-92.0613,10.0,1.0,180.0,2.6,'11111222,11111222,11111222' 
WAVCIS,ioos:station:WAVCIS:CSI03:3,2014-07-11T08:00:00Z,29.4412,-92.0613,10.0,0.0,0.0,1.5,'11111222,11111222,11111222' 
WAVCIS,ioos:station:WAVCIS:CSI03:3,2014-07-11T09:00:00Z,29.4412,-92.0613,10.0,1.5,190.0,2.6,'11111222,11111222,11111222' 
WAVCIS,ioos:station:WAVCIS:CSI03:3,2014-07-11T10:00:00Z,29.4412,-92.0613,10.0,1.0,170.0,1.5,'11111222,11111222,11111222' 
WAVCIS,ioos:station:WAVCIS:CSI03:3,2014-07-11T11:00:00Z,29.4412,-92.0613,10.0,0.5,300.0,1.5,'11111222,11111222,11111222' 
WAVCIS,ioos:station:WAVCIS:CSI03:3,2014-07-11T12:00:00Z,29.4412,-92.0613,10.0,1.5,360.0,2.1,'11111222,11144222,11111222' 
WAVCIS,ioos:station:WAVCIS:CSI03:3,2014-07-11T13:00:00Z,29.4412,-92.0613,10.0,2.1,20.0,2.6,'11111222,11111222,11111222' 
WAVCIS,ioos:station:WAVCIS:CSI03:3,2014-07-11T14:00:00Z,29.4412,-92.0613,10.0,2.6,40.0,3.1,'11111222,11111222,11111222' 
WAVCIS,ioos:station:WAVCIS:CSI03:3,2014-07-11T15:00:00Z,29.4412,-92.0613,10.0,2.1,40.0,3.6,'11111222,11111222,11111222' 
WAVCIS,ioos:station:WAVCIS:CSI03:3,2014-07-11T16:00:00Z,29.4412,-92.0613,10.0,2.6,50.0,3.6,'11111222,11111222,11111222' 
WAVCIS,ioos:station:WAVCIS:CSI03:3,2014-07-11T17:00:00Z,29.4412,-92.0613,10.0,1.5,70.0,2.6,'11111222,11111222,11111222' 
WAVCIS,ioos:station:WAVCIS:CSI03:3,2014-07-11T18:00:00Z,29.4412,-92.0613,10.0,1.5,140.0,2.1,'11111222,11111222,11111222' 
WAVCIS,ioos:station:WAVCIS:CSI03:3,2014-07-11T19:00:00Z,29.4412,-92.0613,10.0,1.5,170.0,2.6,'11111222,11111222,11111222' 
WAVCIS,ioos:station:WAVCIS:CSI03:3,2014-07-11T20:00:00Z,29.4412,-92.0613,10.0,2.1,180.0,3.1,'11111222,11111222,11111222' 
WAVCIS,ioos:station:WAVCIS:CSI03:3,2014-07-11T21:00:00Z,29.4412,-92.0613,10.0,1.0,200.0,2.1,'11111222,11111222,11111222' 
WAVCIS,ioos:station:WAVCIS:CSI03:3,2014-07-11T22:00:00Z,29.4412,-92.0613,10.0,0.5,200.0,2.6,'11111222,11111222,11111222' 
WAVCIS,ioos:station:WAVCIS:CSI03:3,2014-07-11T23:00:00Z,29.4412,-92.0613,10.0,3.1,270.0,4.6,'11111222,11111222,11111222' 
WAVCIS,ioos:station:WAVCIS:CSI03:3,2014-07-12T00:00:00Z,29.4412,-92.0613,10.0,1.5,270.0,3.6,'11111222,11111222,11111222' 
WAVCIS,ioos:station:WAVCIS:CSI03:3,2014-07-12T01:00:00Z,29.4412,-92.0613,10.0,2.1,290.0,3.1,'11111222,11111222,11111222' 
WAVCIS,ioos:station:WAVCIS:CSI03:3,2014-07-12T02:00:00Z,29.4412,-92.0613,10.0,11.8,100.0,14.4,'11111222,11111222,11111222' 
WAVCIS,ioos:station:WAVCIS:CSI03:3,2014-07-12T03:00:00Z,29.4412,-92.0613,10.0,4.6,160.0,5.7,'11111222,11111222,11111222' 
WAVCIS,ioos:station:WAVCIS:CSI03:3,2014-07-12T04:00:00Z,29.4412,-92.0613,10.0,3.1,180.0,4.6,'11111222,11111222,11111222' 
WAVCIS,ioos:station:WAVCIS:CSI03:3,2014-07-12T05:00:00Z,29.4412,-92.0613,10.0,1.0,170.0,2.1,'11111222,11111222,11111222' 
WAVCIS,ioos:station:WAVCIS:CSI03:3,2014-07-12T06:00:00Z,29.4412,-92.0613,10.0,1.5,100.0,2.1,'11111222,11111222,11111222' 
WAVCIS,ioos:station:WAVCIS:CSI03:3,2014-07-12T07:00:00Z,29.4412,-92.0613,10.0,1.5,90.0,2.6,'11111222,11111222,11111222' 
WAVCIS,ioos:station:WAVCIS:CSI03:3,2014-07-12T08:00:00Z,29.4412,-92.0613,10.0,1.0,100.0,2.1,'11111222,11111222,11111222' 
WAVCIS,ioos:station:WAVCIS:CSI03:3,2014-07-12T09:00:00Z,29.4412,-92.0613,10.0,1.0,70.0,2.1,'11111222,11111222,11111222' 
WAVCIS,ioos:station:WAVCIS:CSI03:3,2014-07-12T10:00:00Z,29.4412,-92.0613,10.0,1.5,50.0,2.6,'11111222,11111222,11111222' 
WAVCIS,ioos:station:WAVCIS:CSI03:3,2014-07-12T11:00:00Z,29.4412,-92.0613,10.0,2.6,40.0,3.6,'11111222,11111222,11111222' 
WAVCIS,ioos:station:WAVCIS:CSI03:3,2014-07-12T12:00:00Z,29.4412,-92.0613,10.0,2.1,20.0,3.1,'11111222,11111222,11111222' 
WAVCIS,ioos:station:WAVCIS:CSI03:3,2014-07-12T13:00:00Z,29.4412,-92.0613,10.0,3.6,40.0,4.6,'11111222,11111222,11111222' 
WAVCIS,ioos:station:WAVCIS:CSI03:3,2014-07-12T14:00:00Z,29.4412,-92.0613,10.0,2.6,40.0,4.1,'11111222,11111222,11111222' 
WAVCIS,ioos:station:WAVCIS:CSI03:3,2014-07-12T15:00:00Z,29.4412,-92.0613,10.0,2.1,50.0,3.6,'11111222,11111222,11111222' 